Weather History for Batman, Turkey

Change the Weather History Date:

Monday, July 28, 2014

  Actual Average (LTCC) Record (LTCC)
Temperature  
Mean Temperature 84 °F -  
Max Temperature 104 °F 101 °F 113 °F (2011)
Min Temperature 64 °F 72 °F 66 °F (2014)
Cooling Degree Days 19    
Growing Degree Days 34 (Base 50)    
Moisture  
Dew Point 46 °F    
Average Humidity 27    
Maximum Humidity 68    
Minimum Humidity 5    
Precipitation  
Precipitation 0.00 in - - ()
Sea Level Pressure  
Sea Level Pressure 29.69 in    
Wind  
Wind Speed 6 mph ()    
Max Wind Speed 14 mph    
Max Gust Speed -    
Visibility 8.9 miles    
Events      
Averages and records for this station are not official NWS values.
T = Trace of Precipitation, MM = Missing Value Source: Averaged Metar Reports

Daily Weather History Graph

Daily Weather History Graph

Search for Another Location

Airport:

Trip Planner

Search our weather history database for the weather conditions in past years. The results will help you decide how hot, cold, wet, or windy it might be!

Date:

Astronomy

Jul. 28, 2014 Rise Set
Actual Time 5:15 AM EEST 7:28 PM EEST
Civil Twilight 4:45 AM EEST 7:57 PM EEST
Nautical Twilight 4:09 AM EEST 8:34 PM EEST
Astronomical Twilight 3:29 AM EEST 9:13 PM EEST
Moon 6:34 AM EEST (7/28) 8:01 PM EEST (7/28)
Length of Visible Light 15h 12m
Length of Day
14h 13m
New Moon, 2% of the Moon is Illuminated
Jul 28
New Moon
Aug 4
First Quarter
Aug 10
Full
Aug 17
Last Quarter
Aug 25
New

Hourly Weather History & Observations

Time (EEST) Temp. Heat Index Dew Point Humidity Pressure Visibility Wind Dir Wind Speed Gust Speed Precip Events Conditions
12:20 AM 71.6 °F - 48.2 °F 43% 29.80 in - NE 8.1 mph - N/A   Clear
12:50 AM 69.8 °F - 46.4 °F 43% 29.80 in - NE 5.8 mph - N/A   Clear
1:20 AM 69.8 °F - 48.2 °F 46% 29.80 in - North 5.8 mph - N/A   Clear
1:50 AM 69.8 °F - 46.4 °F 43% 29.77 in - NE 3.5 mph - N/A   Clear
2:20 AM 66.2 °F - 51.8 °F 60% 29.77 in - North 5.8 mph - N/A   Clear
2:50 AM 64.4 °F - 53.6 °F 68% 29.77 in - NE 6.9 mph - N/A   Clear
3:20 AM 64.4 °F - 53.6 °F 68% 29.77 in - NNE 4.6 mph - N/A   Clear
4:20 AM 66.2 °F - 48.2 °F 52% 29.77 in - North 5.8 mph - N/A   Clear
4:50 AM 64.4 °F - 53.6 °F 68% 29.77 in - West 3.5 mph - N/A   Clear
5:50 AM 64.4 °F - 51.8 °F 64% 29.80 in - Variable 2.3 mph - N/A   Clear
6:20 AM 66.2 °F - 50.0 °F 56% 29.80 in - South 4.6 mph - N/A   Clear
6:50 AM 68.0 °F - 50.0 °F 52% 29.80 in - SSW 3.5 mph - N/A   Clear
7:20 AM 69.8 °F - 48.2 °F 46% 29.80 in - South 4.6 mph - N/A   Clear
7:50 AM 73.4 °F - 48.2 °F 41% 29.80 in - South 3.5 mph - N/A   Clear
8:20 AM 77.0 °F - 50.0 °F 39% 29.80 in - SSW 5.8 mph - N/A   Clear
8:50 AM 78.8 °F - 50.0 °F 36% 29.80 in - SSW 6.9 mph - N/A   Clear
9:00 AM 82 °F - 46 °F 18% 29.67 in 12 mi WNW 3.5 mph - -  
9:20 AM 80.6 °F - 50.0 °F 34% 29.80 in - SSW 6.9 mph - N/A   Clear
9:50 AM 84.2 °F - 48.2 °F 29% 29.80 in - SSW 6.9 mph - N/A   Clear
10:00 AM 86 °F - 46 °F 15% 29.67 in 12 mi NW 3.5 mph - -  
10:20 AM 86.0 °F - 51.8 °F 31% 29.77 in - SSW 6.9 mph - N/A   Clear
10:50 AM 89.6 °F - 46.4 °F 22% 29.77 in - South 9.2 mph - N/A   Clear
11:00 AM 91 °F - 43 °F 11% 29.64 in 12 mi WNW 4.6 mph - -  
11:20 AM 91.4 °F - 48.2 °F 23% 29.77 in - South 9.2 mph - N/A   Clear
11:50 AM 93.2 °F - 41.0 °F 16% 29.74 in - SSW 8.1 mph - N/A   Clear
12:00 PM 96 °F - 37 °F 6% 29.62 in 12 mi West 3.5 mph - -  
12:20 PM 95.0 °F - 48.2 °F 20% 29.74 in 6.2 mi SSW 10.4 mph - N/A   Partly Cloudy
12:50 PM 96.8 °F - 48.2 °F 19% 29.71 in 6.2 mi SSW 11.5 mph - N/A   Partly Cloudy
1:00 PM 101 °F - 39 °F 6% 29.59 in 12 mi West 8.1 mph - -   Scattered Clouds
1:20 PM 98.6 °F - 50.0 °F 19% 29.71 in 6.2 mi SSW 12.7 mph - N/A   Partly Cloudy
1:50 PM 98.6 °F - 48.2 °F 18% 29.68 in 6.2 mi SSW 10.4 mph - N/A   Partly Cloudy
2:00 PM 101 °F - 37 °F 5% 29.57 in 12 mi West 5.8 mph - -   Scattered Clouds
2:20 PM 100.4 °F - 42.8 °F 14% 29.68 in 6.2 mi SSW 11.5 mph - N/A   Partly Cloudy
2:50 PM 100.4 °F - 41.0 °F 13% 29.68 in 6.2 mi SSW 9.2 mph - N/A   Partly Cloudy
3:00 PM 102 °F - 35 °F 5% 29.55 in 12 mi NW 2.3 mph - -   Scattered Clouds
3:20 PM 100.4 °F - 42.8 °F 14% 29.68 in 6.2 mi SSW 11.5 mph - N/A   Partly Cloudy
3:50 PM 102.2 °F - 42.8 °F 13% 29.65 in 6.2 mi SW 11.5 mph - N/A   Partly Cloudy
4:00 PM 102 °F - 37 °F 5% 29.54 in 12 mi West 5.8 mph - -   Scattered Clouds
4:50 PM 100.4 °F - 44.6 °F 15% 29.65 in 6.2 mi SW 12.7 mph - N/A   Partly Cloudy
5:00 PM 103 °F - 38 °F 5% 29.53 in 12 mi West 10.4 mph - -   Scattered Clouds
5:20 PM 98.6 °F - 44.6 °F 16% 29.65 in 6.2 mi SW 11.5 mph - N/A   Partly Cloudy
5:50 PM 98.6 °F - 48.2 °F 18% 29.65 in 6.2 mi SSW 9.2 mph - N/A   Partly Cloudy
6:00 PM 102 °F - 37 °F 5% 29.52 in 12 mi WSW 13.8 mph - -   Scattered Clouds
6:20 PM 96.8 °F - 46.4 °F 18% 29.65 in 6.2 mi SSW 9.2 mph - N/A   Partly Cloudy
6:50 PM 93.2 °F - 50.0 °F 23% 29.65 in 6.2 mi SSW 8.1 mph - N/A   Partly Cloudy
7:00 PM 99 °F - 37 °F 6% 29.51 in 12 mi WSW 12.7 mph - -  
7:20 PM 87.8 °F - 51.8 °F 29% 29.65 in 6.2 mi SSW 8.1 mph - N/A   Partly Cloudy
7:50 PM 84.2 °F 82.8 °F 53.6 °F 35% 29.65 in 6.2 mi SSW 6.9 mph - N/A   Partly Cloudy
8:00 PM 94 °F - 39 °F 8% 29.52 in 12 mi West 6.9 mph - -  
8:20 PM 82.4 °F 81.4 °F 53.6 °F 37% 29.65 in - South 6.9 mph - N/A   Clear
8:50 PM 84.2 °F - 48.2 °F 29% 29.65 in - SSE 4.6 mph - N/A   Clear
9:00 PM 91 °F - 42 °F 10% 29.54 in 12 mi WNW 4.6 mph - -  
9:20 PM 87.8 °F - 41.0 °F 19% 29.65 in - SSW 4.6 mph - N/A   Clear
9:50 PM 86.0 °F - 39.2 °F 19% 29.65 in - SSE 5.8 mph - N/A   Clear
10:20 PM 89.6 °F - 37.4 °F 16% 29.65 in - Variable 5.8 mph - N/A   Clear
10:50 PM 84.2 °F - 42.8 °F 23% 29.65 in - South 6.9 mph - N/A   Clear
11:20 PM 78.8 °F - 46.4 °F 32% 29.68 in - South 6.9 mph - N/A   Clear
11:50 PM 77.0 °F - 46.4 °F 34% 29.65 in - Variable 2.3 mph - N/A   Clear